Location: Eppenbrunn
(49.1158°N, 7.5601°E)
Time: 09:37:44
(UTC+00:00)

X-37B - Visible Passes

Search period start: 30 July 2021 00:00
Search period end: 09 August 2021 00:00
Orbit: 383 x 392 km, 45.0° (Epoch: 01 July)

Date Brightness Start Highest point End Pass type
(mag) Time Alt. Az. Time Alt. Az. Time Alt. Az.
02 Aug 3.1 02:35:42 10° SSE 02:36:37 11° SSE 02:37:32 10° SE visible
03 Aug 2.2 03:11:51 10° SSW 03:14:24 23° SSE 03:17:00 10° ESE visible
04 Aug 2.6 02:15:59 16° SSE 02:16:14 16° SSE 02:18:21 10° ESE visible
05 Aug 1.7 02:52:22 18° SW 02:54:08 30° SSE 02:56:58 10° ESE visible
06 Aug 2.3 01:56:29 22° SE 01:56:29 22° SE 01:58:31 10° ESE visible
06 Aug 1.3 03:29:08 10° WSW 03:32:08 39° S 03:35:10 10° ESE visible
07 Aug 1.3 02:32:54 28° SSW 02:33:53 36° S 02:36:51 10° ESE visible
08 Aug 2.5 01:37:06 20° ESE 01:37:06 20° ESE 01:38:29 10° ESE visible
08 Aug 1.2 03:09:22 13° WSW 03:11:56 38° S 03:14:56 10° ESE visible
